Location: Misciano
(43.5000°N, 11.9500°E)
Time: 21:23:26
(UTC+00:00)

MetOp-A - Pass Details

Date: 13 August 2020
Orbit: 819 x 821 km, 98.5° (Epoch: 21 September)

Event Time Altitude Azimuth Distance (km) Brightness Sun altitude
Exits shadow 19:03:09 - 162° (SSE) 3,341 6.9 -8.3°
Rises 19:03:09 0° 162° (SSE) 3,339 6.9 -8.3°
Reaches altitude 10° 19:05:29 10° 161° (SSE) 2,411 6.1 -8.6°
Maximum altitude 19:10:50 83° 75° (ENE) 833 4.1 -9.5°
Drops below altitude 10° 19:16:13 10° 348° (NNW) 2,427 7.2 -10.3°
Sets 19:18:34 0° 348° (NNW) 3,363 8.0 -10.7°
